Time,TemperatureF,DewpointF,PressureIn,WindDirection,WindDirectionDegrees,WindSpeedMPH,WindSpeedGustMPH,Humidity,HourlyPrecipIn,Conditions,Clouds,dailyrainin,SoftwareType,DateUTC
2013-08-25 00:00:00,73.0,58.3,29.66,WSW,241,7.0,10.0,60,0.00,,,0.00,VWS V15.00,2013-08-25 06:00:00,
2013-08-25 00:02:00,73.0,58.3,29.66,WSW,248,6.0,10.0,60,0.00,,SKC,0.00,VWS V14.01,2013-08-25 06:02:00,
2013-08-25 00:07:00,72.8,58.1,29.66,WSW,244,6.0,10.0,60,0.00,,SKC,0.00,VWS V14.01,2013-08-25 06:07:00,
2013-08-25 00:12:00,72.7,58.5,29.66,WSW,253,6.0,10.0,61,0.00,,SKC,0.00,VWS V14.01,2013-08-25 06:12:00,
2013-08-25 00:17:00,72.8,58.6,29.66,WSW,244,6.0,10.0,61,0.00,,SKC,0.00,VWS V14.01,2013-08-25 06:17:00,
2013-08-25 00:22:00,72.9,58.2,29.66,WSW,242,7.0,10.0,60,0.00,,SKC,0.00,VWS V14.01,2013-08-25 06:22:00,
2013-08-25 00:27:00,73.0,58.8,29.66,SW,230,9.0,10.0,61,0.00,,SKC,0.00,VWS V14.01,2013-08-25 06:27:00,
2013-08-25 00:30:00,73.1,58.4,29.66,WSW,249,6.0,10.0,60,0.00,,,0.00,VWS V15.00,2013-08-25 06:30:00,
2013-08-25 00:32:00,73.1,58.4,29.66,WSW,243,7.0,10.0,60,0.00,,SKC,0.00,VWS V14.01,2013-08-25 06:32:00,
2013-08-25 00:37:00,73.1,58.4,29.66,WSW,249,7.0,9.0,60,0.00,,SKC,0.00,VWS V14.01,2013-08-25 06:37:00,
2013-08-25 00:42:00,72.8,58.6,29.66,WSW,248,7.0,10.0,61,0.00,,SKC,0.00,VWS V14.01,2013-08-25 06:42:00,
2013-08-25 00:47:00,72.5,58.3,29.66,WSW,244,7.0,10.0,61,0.00,,SKC,0.00,VWS V14.01,2013-08-25 06:47:00,
2013-08-25 00:52:00,72.0,58.3,29.66,WSW,244,10.0,11.0,62,0.00,,SKC,0.00,VWS V14.01,2013-08-25 06:52:00,
2013-08-25 00:57:00,71.4,57.7,29.66,WSW,245,8.0,12.0,62,0.00,,SKC,0.00,VWS V14.01,2013-08-25 06:57:00,
2013-08-25 01:00:00,71.0,58.2,29.67,WSW,242,8.0,12.0,64,0.00,,,0.00,VWS V15.00,2013-08-25 07:00:00,
2013-08-25 01:02:00,71.1,57.9,29.67,WSW,238,7.0,12.0,63,0.00,,SKC,0.00,VWS V14.01,2013-08-25 07:02:00,
2013-08-25 01:07:00,70.9,58.1,29.66,WSW,242,7.0,10.0,64,0.00,,SKC,0.00,VWS V14.01,2013-08-25 07:07:00,
2013-08-25 01:12:00,71.3,58.5,29.66,SW,236,9.0,10.0,64,0.00,,SKC,0.00,VWS V14.01,2013-08-25 07:12:00,
2013-08-25 01:17:00,71.5,58.3,29.66,WSW,238,6.0,10.0,63,0.00,,SKC,0.00,VWS V14.01,2013-08-25 07:17:00,
2013-08-25 01:22:00,71.7,58.5,29.66,WSW,242,10.0,11.0,63,0.00,,SKC,0.00,VWS V14.01,2013-08-25 07:22:00,
2013-08-25 01:27:00,71.7,58.5,29.66,WSW,238,7.0,11.0,63,0.00,,SKC,0.00,VWS V14.01,2013-08-25 07:27:00,
2013-08-25 01:30:00,71.5,58.3,29.66,WSW,257,5.0,11.0,63,0.00,,,0.00,VWS V15.00,2013-08-25 07:30:00,
2013-08-25 01:32:00,71.5,58.3,29.66,WSW,245,7.0,11.0,63,0.00,,SKC,0.00,VWS V14.01,2013-08-25 07:32:00,
2013-08-25 01:37:00,71.2,58.0,29.66,WSW,244,9.0,9.0,63,0.00,,SKC,0.00,VWS V14.01,2013-08-25 07:37:00,
2013-08-25 01:42:00,70.8,58.0,29.66,WSW,244,6.0,9.0,64,0.00,,SKC,0.00,VWS V14.01,2013-08-25 07:42:00,
2013-08-25 01:47:00,70.5,57.8,29.66,WSW,242,8.0,10.0,64,0.00,,SKC,0.00,VWS V14.01,2013-08-25 07:47:00,
2013-08-25 01:52:00,70.2,57.9,29.67,WSW,242,7.0,10.0,65,0.00,,SKC,0.00,VWS V14.01,2013-08-25 07:52:00,
2013-08-25 01:57:00,70.0,58.1,29.67,WSW,241,6.0,11.0,66,0.00,,SKC,0.00,VWS V14.01,2013-08-25 07:57:00,
2013-08-25 02:00:00,69.7,57.8,29.67,WSW,241,9.0,11.0,66,0.00,,,0.00,VWS V15.00,2013-08-25 08:00:00,
2013-08-25 02:02:00,69.7,57.8,29.67,WSW,239,8.0,11.0,66,0.00,,SKC,0.00,VWS V14.01,2013-08-25 08:02:00,
2013-08-25 02:07:00,69.6,57.8,29.68,WSW,241,9.0,10.0,66,0.00,,SKC,0.00,VWS V14.01,2013-08-25 08:07:00,
2013-08-25 02:12:00,69.7,57.8,29.68,WSW,246,6.0,10.0,66,0.00,,SKC,0.00,VWS V14.01,2013-08-25 08:12:00,
2013-08-25 02:17:00,69.8,57.9,29.68,WSW,238,7.0,11.0,66,0.00,,SKC,0.00,VWS V14.01,2013-08-25 08:17:00,
2013-08-25 02:22:00,69.9,58.0,29.68,WSW,238,9.0,12.0,66,0.00,,SKC,0.00,VWS V14.01,2013-08-25 08:22:00,
2013-08-25 02:27:00,69.9,58.0,29.68,WSW,248,8.0,12.0,66,0.00,,SKC,0.00,VWS V14.01,2013-08-25 08:27:00,
2013-08-25 02:30:00,69.7,57.8,29.68,WSW,242,10.0,12.0,66,0.00,,,0.00,VWS V15.00,2013-08-25 08:30:00,
2013-08-25 02:32:00,69.8,57.9,29.68,WSW,238,10.0,12.0,66,0.00,,SKC,0.00,VWS V14.01,2013-08-25 08:32:00,
2013-08-25 02:37:00,69.6,57.8,29.68,WSW,254,9.0,10.0,66,0.00,,SKC,0.00,VWS V14.01,2013-08-25 08:37:00,
2013-08-25 02:42:00,69.4,57.6,29.68,WSW,252,9.0,10.0,66,0.00,,SKC,0.00,VWS V14.01,2013-08-25 08:42:00,
2013-08-25 02:47:00,69.1,57.7,29.69,WSW,248,4.0,10.0,67,0.00,,SKC,0.00,VWS V14.01,2013-08-25 08:47:00,
2013-08-25 02:52:00,68.6,57.2,29.69,WSW,249,9.0,11.0,67,0.00,,SKC,0.00,VWS V14.01,2013-08-25 08:52:00,
2013-08-25 02:57:00,68.3,57.3,29.69,WSW,241,8.0,12.0,68,0.00,,SKC,0.00,VWS V14.01,2013-08-25 08:57:00,
2013-08-25 03:00:00,68.3,57.8,29.69,WSW,245,8.0,12.0,69,0.00,,,0.00,VWS V15.00,2013-08-25 09:00:00,
2013-08-25 03:02:00,68.2,57.7,29.70,WSW,240,6.0,12.0,69,0.00,,SKC,0.00,VWS V14.01,2013-08-25 09:02:00,
2013-08-25 03:07:00,68.6,57.6,29.69,SW,236,7.0,12.0,68,0.00,,SKC,0.00,VWS V14.01,2013-08-25 09:07:00,
2013-08-25 03:12:00,68.8,57.4,29.69,WSW,242,7.0,12.0,67,0.00,,SKC,0.00,VWS V14.01,2013-08-25 09:12:00,
2013-08-25 03:17:00,68.8,57.4,29.69,WSW,241,11.0,12.0,67,0.00,,SKC,0.00,VWS V14.01,2013-08-25 09:17:00,
2013-08-25 03:22:00,68.9,57.5,29.69,WSW,256,7.0,12.0,67,0.00,,SKC,0.00,VWS V14.01,2013-08-25 09:22:00,
2013-08-25 03:27:00,69.0,57.6,29.69,WSW,252,9.0,12.0,67,0.00,,SKC,0.00,VWS V14.01,2013-08-25 09:27:00,
2013-08-25 03:30:00,68.8,57.4,29.69,WSW,242,9.0,12.0,67,0.00,,,0.00,VWS V15.00,2013-08-25 09:30:00,
2013-08-25 03:32:00,69.0,57.6,29.69,WSW,244,7.0,12.0,67,0.00,,SKC,0.00,VWS V14.01,2013-08-25 09:32:00,
2013-08-25 03:37:00,68.5,57.1,29.69,WSW,246,7.0,11.0,67,0.00,,SKC,0.00,VWS V14.01,2013-08-25 09:37:00,
2013-08-25 03:42:00,68.0,57.1,29.70,WSW,248,9.0,12.0,68,0.00,,SKC,0.00,VWS V14.01,2013-08-25 09:42:00,
2013-08-25 03:47:00,67.7,57.2,29.69,WSW,245,6.0,12.0,69,0.00,,SKC,0.00,VWS V14.01,2013-08-25 09:47:00,
2013-08-25 03:52:00,67.9,57.4,29.69,WSW,253,9.0,12.0,69,0.00,,SKC,0.00,VWS V14.01,2013-08-25 09:52:00,
2013-08-25 03:57:00,68.0,57.1,29.69,North,360,12.0,13.0,68,0.00,,SKC,0.00,VWS V14.01,2013-08-25 09:57:00,
2013-08-25 04:00:00,68.3,57.3,29.69,WSW,244,10.0,13.0,68,0.00,,,0.00,VWS V15.00,2013-08-25 10:00:00,
2013-08-25 04:02:00,68.2,57.2,29.69,WSW,240,11.0,13.0,68,0.00,,SKC,0.00,VWS V14.01,2013-08-25 10:02:00,
2013-08-25 04:07:00,68.4,57.4,29.68,WSW,241,11.0,13.0,68,0.00,,SKC,0.00,VWS V14.01,2013-08-25 10:07:00,
2013-08-25 04:12:00,68.6,57.2,29.68,WSW,241,11.0,13.0,67,0.00,,SKC,0.00,VWS V14.01,2013-08-25 10:12:00,
2013-08-25 04:17:00,68.9,57.5,29.69,WSW,254,9.0,13.0,67,0.00,,SKC,0.00,VWS V14.01,2013-08-25 10:17:00,
2013-08-25 04:22:00,69.1,57.3,29.69,WSW,252,10.0,13.0,66,0.00,,SKC,0.00,VWS V14.01,2013-08-25 10:22:00,
2013-08-25 04:27:00,69.3,57.5,29.69,WSW,244,5.0,13.0,66,0.00,,SKC,0.00,VWS V14.01,2013-08-25 10:27:00,
2013-08-25 04:30:00,69.4,57.1,29.69,WSW,240,7.0,9.0,65,0.00,,,0.00,VWS V15.00,2013-08-25 10:30:00,
2013-08-25 04:32:00,69.4,57.1,29.69,WSW,258,8.0,8.0,65,0.00,,SKC,0.00,VWS V14.01,2013-08-25 10:32:00,
2013-08-25 04:37:00,69.3,57.0,29.69,WSW,253,6.0,10.0,65,0.00,,SKC,0.00,VWS V14.01,2013-08-25 10:37:00,
2013-08-25 04:42:00,69.1,57.3,29.69,WSW,242,7.0,10.0,66,0.00,,SKC,0.00,VWS V14.01,2013-08-25 10:42:00,
2013-08-25 04:47:00,68.9,57.1,29.70,WSW,244,7.0,11.0,66,0.00,,SKC,0.00,VWS V14.01,2013-08-25 10:47:00,
2013-08-25 04:52:00,68.8,57.4,29.70,WSW,245,9.0,11.0,67,0.00,,SKC,0.00,VWS V14.01,2013-08-25 10:52:00,
2013-08-25 04:57:00,68.5,57.1,29.69,WSW,246,6.0,11.0,67,0.00,,SKC,0.00,VWS V14.01,2013-08-25 10:57:00,
2013-08-25 05:00:00,68.2,56.8,29.69,WSW,239,7.0,11.0,67,0.00,,,0.00,VWS V15.00,2013-08-25 11:00:00,
2013-08-25 05:02:00,68.4,57.0,29.70,WSW,245,7.0,11.0,67,0.00,,SKC,0.00,VWS V14.01,2013-08-25 11:02:00,
2013-08-25 05:07:00,67.9,57.0,29.70,SW,236,9.0,12.0,68,0.00,,SKC,0.00,VWS V14.01,2013-08-25 11:07:00,
2013-08-25 05:12:00,67.7,56.8,29.71,SW,231,11.0,13.0,68,0.00,,SKC,0.00,VWS V14.01,2013-08-25 11:12:00,
2013-08-25 05:17:00,67.4,56.9,29.71,SW,236,5.0,13.0,69,0.00,,SKC,0.00,VWS V14.01,2013-08-25 11:17:00,
2013-08-25 05:21:00,67.4,56.9,29.71,WSW,244,9.0,13.0,69,0.00,,SKC,0.00,VWS V14.01,2013-08-25 11:21:00,
2013-08-25 05:26:00,67.4,56.9,29.71,WSW,245,10.0,13.0,69,0.00,,SKC,0.00,VWS V14.01,2013-08-25 11:26:00,
2013-08-25 05:30:00,67.3,56.8,29.71,WSW,242,11.0,13.0,69,0.00,,,0.00,VWS V15.00,2013-08-25 11:30:00,
2013-08-25 05:31:00,67.4,56.9,29.71,WSW,250,9.0,13.0,69,0.00,,SKC,0.00,VWS V14.01,2013-08-25 11:31:00,
2013-08-25 05:36:00,67.3,56.8,29.71,WSW,248,10.0,12.0,69,0.00,,SKC,0.00,VWS V14.01,2013-08-25 11:36:00,
2013-08-25 05:41:00,67.2,56.7,29.71,WSW,251,9.0,12.0,69,0.00,,SKC,0.00,VWS V14.01,2013-08-25 11:41:00,
2013-08-25 05:46:00,67.0,56.5,29.72,WSW,250,6.0,12.0,69,0.00,,SKC,0.00,VWS V14.01,2013-08-25 11:46:00,
2013-08-25 05:51:00,66.7,56.2,29.72,WSW,252,10.0,12.0,69,0.00,,SKC,0.00,VWS V14.01,2013-08-25 11:51:00,
2013-08-25 05:56:00,66.5,56.4,29.72,WSW,241,9.0,12.0,70,0.00,,SKC,0.00,VWS V14.01,2013-08-25 11:56:00,
2013-08-25 06:00:00,66.3,56.2,29.73,WSW,241,10.0,12.0,70,0.00,,,0.00,VWS V15.00,2013-08-25 12:00:00,
2013-08-25 06:01:00,66.4,56.3,29.72,WSW,254,8.0,12.0,70,0.00,,SKC,0.00,VWS V14.01,2013-08-25 12:01:00,
2013-08-25 06:06:00,66.3,56.2,29.73,WSW,239,10.0,11.0,70,0.00,,SKC,0.00,VWS V14.01,2013-08-25 12:06:00,
2013-08-25 06:11:00,66.4,56.3,29.74,WSW,248,9.0,12.0,70,0.00,,SKC,0.00,VWS V14.01,2013-08-25 12:11:00,
2013-08-25 06:16:00,66.5,56.4,29.75,WSW,247,11.0,12.0,70,0.00,,SKC,0.00,VWS V14.01,2013-08-25 12:16:00,
2013-08-25 06:21:00,66.6,56.5,29.74,WSW,242,10.0,12.0,70,0.00,,SKC,0.00,VWS V14.01,2013-08-25 12:21:00,
2013-08-25 06:26:00,66.9,56.8,29.74,SW,234,8.0,12.0,70,0.00,,SKC,0.00,VWS V14.01,2013-08-25 12:26:00,
2013-08-25 06:30:00,67.2,56.7,29.74,WSW,241,9.0,12.0,69,0.00,,,0.00,VWS V15.00,2013-08-25 12:30:00,
2013-08-25 06:31:00,67.1,56.6,29.74,WSW,238,8.0,12.0,69,0.00,,SKC,0.00,VWS V14.01,2013-08-25 12:31:00,
2013-08-25 06:36:00,67.4,56.9,29.74,WSW,237,8.0,11.0,69,0.00,,SKC,0.00,VWS V14.01,2013-08-25 12:36:00,
2013-08-25 06:41:00,67.6,56.7,29.74,SW,230,7.0,11.0,68,0.00,,SKC,0.00,VWS V14.01,2013-08-25 12:41:00,
2013-08-25 06:46:00,68.0,57.1,29.74,WSW,242,10.0,11.0,68,0.00,,SKC,0.00,VWS V14.01,2013-08-25 12:46:00,
2013-08-25 06:51:00,68.6,56.8,29.74,WSW,245,10.0,11.0,66,0.00,,SKC,0.00,VWS V14.01,2013-08-25 12:51:00,
2013-08-25 06:56:00,68.7,57.3,29.74,SW,234,10.0,12.0,67,0.00,,SKC,0.00,VWS V14.01,2013-08-25 12:56:00,
2013-08-25 07:00:00,69.0,57.2,29.74,WSW,250,10.0,12.0,66,0.00,,,0.00,VWS V15.00,2013-08-25 13:00:00,
2013-08-25 07:01:00,68.9,57.1,29.74,SW,236,5.0,12.0,66,0.00,,SKC,0.00,VWS V14.01,2013-08-25 13:01:00,
2013-08-25 07:06:00,69.2,57.4,29.77,WSW,248,6.0,11.0,66,0.00,,SKC,0.00,VWS V14.01,2013-08-25 13:06:00,
2013-08-25 07:11:00,69.6,57.8,29.77,WSW,249,9.0,13.0,66,0.00,,SKC,0.00,VWS V14.01,2013-08-25 13:11:00,
2013-08-25 07:16:00,69.9,58.0,29.77,North,360,4.0,13.0,66,0.00,,SKC,0.00,VWS V14.01,2013-08-25 13:16:00,
2013-08-25 07:21:00,70.2,58.3,29.77,North,360,7.0,13.0,66,0.00,,SKC,0.00,VWS V14.01,2013-08-25 13:21:00,
2013-08-25 07:26:00,70.5,58.2,29.77,WSW,249,5.0,13.0,65,0.00,,SKC,0.00,VWS V14.01,2013-08-25 13:26:00,
2013-08-25 07:30:00,71.1,57.9,29.77,WSW,242,6.0,13.0,63,0.00,,,0.00,VWS V15.00,2013-08-25 13:30:00,
2013-08-25 07:31:00,70.9,58.1,29.77,WSW,246,6.0,13.0,64,0.00,,SKC,0.00,VWS V14.01,2013-08-25 13:31:00,
2013-08-25 07:36:00,71.4,57.7,29.77,SW,236,5.0,11.0,62,0.00,,SKC,0.00,VWS V14.01,2013-08-25 13:36:00,
2013-08-25 07:41:00,71.9,58.2,29.77,North,360,10.0,11.0,62,0.00,,SKC,0.00,VWS V14.01,2013-08-25 13:41:00,
2013-08-25 07:46:00,72.7,58.5,29.77,WSW,253,9.0,11.0,61,0.00,,SKC,0.00,VWS V14.01,2013-08-25 13:46:00,
2013-08-25 07:51:00,73.5,58.8,29.76,WSW,257,7.0,11.0,60,0.00,,SKC,0.00,VWS V14.01,2013-08-25 13:51:00,
2013-08-25 07:56:00,74.1,58.9,29.77,WSW,246,7.0,11.0,59,0.00,,SKC,0.00,VWS V14.01,2013-08-25 13:56:00,
2013-08-25 08:00:00,74.9,59.1,29.76,West,260,6.0,11.0,58,0.00,,,0.00,VWS V15.00,2013-08-25 14:00:00,
2013-08-25 08:01:00,74.7,59.0,29.76,WSW,243,5.0,11.0,58,0.00,,SKC,0.00,VWS V14.01,2013-08-25 14:01:00,
2013-08-25 08:06:00,75.4,59.1,29.77,WSW,238,7.0,10.0,57,0.00,,SKC,0.00,VWS V14.01,2013-08-25 14:06:00,
2013-08-25 08:11:00,76.3,59.0,29.77,WSW,248,4.0,10.0,55,0.00,,SKC,0.00,VWS V14.01,2013-08-25 14:11:00,
2013-08-25 08:16:00,76.9,59.5,29.76,WSW,253,3.0,10.0,55,0.00,,SKC,0.00,VWS V14.01,2013-08-25 14:16:00,
2013-08-25 08:21:00,77.5,59.6,29.76,WSW,254,2.0,10.0,54,0.00,,SKC,0.00,VWS V14.01,2013-08-25 14:21:00,
2013-08-25 08:26:00,77.9,59.9,29.76,WSW,257,5.0,10.0,54,0.00,,SKC,0.00,VWS V14.01,2013-08-25 14:26:00,
2013-08-25 08:30:00,78.2,60.2,29.76,WSW,257,4.0,10.0,54,0.00,,,0.00,VWS V15.00,2013-08-25 14:30:00,
2013-08-25 08:31:00,78.1,59.6,29.76,WSW,257,4.0,10.0,53,0.00,,SKC,0.00,VWS V14.01,2013-08-25 14:31:00,
2013-08-25 08:36:00,78.2,60.2,29.76,WSW,257,4.0,4.0,54,0.00,,SKC,0.00,VWS V14.01,2013-08-25 14:36:00,
2013-08-25 08:41:00,78.2,60.2,29.76,WSW,258,3.0,4.0,54,0.00,,SKC,0.00,VWS V14.01,2013-08-25 14:41:00,
2013-08-25 08:46:00,78.2,60.7,29.76,WSW,258,1.0,4.0,55,0.00,,SKC,0.00,VWS V14.01,2013-08-25 14:46:00,
2013-08-25 08:51:00,78.4,60.9,29.76,WSW,258,3.0,4.0,55,0.00,,SKC,0.00,VWS V14.01,2013-08-25 14:51:00,
2013-08-25 08:56:00,78.6,59.5,29.76,WSW,258,0.0,4.0,52,0.00,,SKC,0.00,VWS V14.01,2013-08-25 14:56:00,
2013-08-25 09:00:00,79.4,59.2,29.76,West,259,0.0,4.0,50,0.00,,,0.00,VWS V15.00,2013-08-25 15:00:00,
2013-08-25 09:01:00,79.2,59.0,29.76,West,259,0.0,4.0,50,0.00,,SKC,0.00,VWS V14.01,2013-08-25 15:01:00,
2013-08-25 09:06:00,79.8,59.0,29.78,West,259,0.0,0.0,49,0.00,,SKC,0.00,VWS V14.01,2013-08-25 15:06:00,
2013-08-25 09:11:00,80.3,57.7,29.77,West,259,0.0,0.0,46,0.00,,SKC,0.00,VWS V14.01,2013-08-25 15:11:00,
2013-08-25 09:16:00,80.9,58.2,29.77,West,259,0.0,0.0,46,0.00,,SKC,0.00,VWS V14.01,2013-08-25 15:16:00,
2013-08-25 09:21:00,81.5,58.1,29.77,West,263,0.0,0.0,45,0.00,,SKC,0.00,VWS V14.01,2013-08-25 15:21:00,
2013-08-25 09:26:00,81.9,58.5,29.77,SSW,197,2.0,2.0,45,0.00,,SKC,0.00,VWS V14.01,2013-08-25 15:26:00,
2013-08-25 09:30:00,82.9,58.8,29.77,SE,128,0.0,4.0,44,0.00,,,0.00,VWS V15.00,2013-08-25 15:30:00,
2013-08-25 09:31:00,82.6,59.1,29.77,SE,128,2.0,4.0,45,0.00,,SKC,0.00,VWS V14.01,2013-08-25 15:31:00,
2013-08-25 09:36:00,83.3,59.1,29.77,SE,128,1.0,2.0,44,0.00,,SKC,0.00,VWS V14.01,2013-08-25 15:36:00,
2013-08-25 09:41:00,84.1,60.5,29.76,ENE,76,0.0,4.0,45,0.00,,SKC,0.00,VWS V14.01,2013-08-25 15:41:00,
2013-08-25 09:46:00,85.0,60.0,29.76,ENE,78,0.0,4.0,43,0.00,,SKC,0.00,VWS V14.01,2013-08-25 15:46:00,
2013-08-25 09:51:00,85.9,58.8,29.75,ENE,76,1.0,6.0,40,0.00,,SKC,0.00,VWS V14.01,2013-08-25 15:51:00,
2013-08-25 09:56:00,86.2,59.8,29.75,NE,49,3.0,6.0,41,0.00,,SKC,0.00,VWS V14.01,2013-08-25 15:56:00,
2013-08-25 10:00:00,86.0,59.6,29.75,NE,39,2.0,6.0,41,0.00,,,0.00,VWS V15.00,2013-08-25 16:00:00,
2013-08-25 10:01:00,86.1,59.7,29.75,NE,54,0.0,6.0,41,0.00,,SKC,0.00,VWS V14.01,2013-08-25 16:01:00,
2013-08-25 10:06:00,85.9,60.2,29.76,NE,51,0.0,3.0,42,0.00,,SKC,0.00,VWS V14.01,2013-08-25 16:06:00,
2013-08-25 10:11:00,85.8,60.1,29.76,ENE,62,2.0,4.0,42,0.00,,SKC,0.00,VWS V14.01,2013-08-25 16:11:00,
2013-08-25 10:16:00,85.8,59.4,29.76,East,87,4.0,5.0,41,0.00,,SKC,0.00,VWS V14.01,2013-08-25 16:16:00,
2013-08-25 10:21:00,85.6,59.9,29.76,East,87,0.0,5.0,42,0.00,,SKC,0.00,VWS V14.01,2013-08-25 16:21:00,
2013-08-25 10:26:00,85.7,59.3,29.76,East,80,3.0,5.0,41,0.00,,SKC,0.00,VWS V14.01,2013-08-25 16:26:00,
2013-08-25 10:30:00,85.9,59.5,29.76,ENE,69,0.0,5.0,41,0.00,,,0.00,VWS V15.00,2013-08-25 16:30:00,
2013-08-25 10:31:00,85.9,60.8,29.76,ENE,69,3.0,5.0,43,0.00,,SKC,0.00,VWS V14.01,2013-08-25 16:31:00,
2013-08-25 10:36:00,86.0,60.9,29.76,ENE,74,2.0,3.0,43,0.00,,SKC,0.00,VWS V14.01,2013-08-25 16:36:00,
2013-08-25 10:41:00,86.0,59.6,29.76,ENE,71,3.0,5.0,41,0.00,,SKC,0.00,VWS V14.01,2013-08-25 16:41:00,
2013-08-25 10:46:00,85.7,59.3,29.76,NE,51,2.0,5.0,41,0.00,,SKC,0.00,VWS V14.01,2013-08-25 16:46:00,
2013-08-25 10:51:00,85.4,59.0,29.76,ENE,67,1.0,7.0,41,0.00,,SKC,0.00,VWS V14.01,2013-08-25 16:51:00,
2013-08-25 10:56:00,85.5,59.8,29.76,ENE,68,4.0,7.0,42,0.00,,SKC,0.00,VWS V14.01,2013-08-25 16:56:00,
2013-08-25 11:00:00,85.8,60.1,29.76,NE,56,3.0,7.0,42,0.00,,,0.00,VWS V15.00,2013-08-25 17:00:00,
2013-08-25 11:01:00,85.6,59.2,29.76,NE,56,3.0,7.0,41,0.00,,SKC,0.00,VWS V14.01,2013-08-25 17:01:00,
2013-08-25 11:06:00,85.9,59.5,29.76,ENE,67,3.0,6.0,41,0.00,,SKC,0.00,VWS V14.01,2013-08-25 17:06:00,
2013-08-25 11:11:00,86.0,60.3,29.76,ENE,67,2.0,6.0,42,0.00,,SKC,0.00,VWS V14.01,2013-08-25 17:11:00,
2013-08-25 11:16:00,86.6,59.4,29.75,ENE,71,6.0,7.0,40,0.00,,SKC,0.00,VWS V14.01,2013-08-25 17:16:00,
2013-08-25 11:21:00,86.8,58.9,29.75,East,80,1.0,8.0,39,0.00,,SKC,0.00,VWS V14.01,2013-08-25 17:21:00,
2013-08-25 11:26:00,87.1,59.9,29.75,ENE,59,5.0,8.0,40,0.00,,SKC,0.00,VWS V14.01,2013-08-25 17:26:00,
2013-08-25 11:30:00,87.8,59.8,29.74,SE,134,4.0,9.0,39,0.00,,,0.00,VWS V15.00,2013-08-25 17:30:00,
2013-08-25 11:31:00,87.5,60.2,29.75,ENE,63,5.0,9.0,40,0.00,,SKC,0.00,VWS V14.01,2013-08-25 17:31:00,
2013-08-25 11:36:00,88.4,58.8,29.75,SE,129,4.0,11.0,37,0.00,,SKC,0.00,VWS V14.01,2013-08-25 17:36:00,
2013-08-25 11:41:00,89.6,59.1,29.74,SE,130,7.0,11.0,36,0.00,,SKC,0.00,VWS V14.01,2013-08-25 17:41:00,
2013-08-25 11:46:00,90.1,58.8,29.74,SSE,166,1.0,11.0,35,0.00,,SKC,0.00,VWS V14.01,2013-08-25 17:46:00,
2013-08-25 11:51:00,90.4,59.0,29.74,SSE,148,5.0,11.0,35,0.00,,SKC,0.00,VWS V14.01,2013-08-25 17:51:00,
2013-08-25 11:56:00,90.5,57.5,29.73,North,360,10.0,12.0,33,0.00,,SKC,0.00,VWS V14.01,2013-08-25 17:56:00,
2013-08-25 12:00:00,90.3,59.0,29.74,East,82,0.0,12.0,35,0.00,,,0.00,VWS V15.00,2013-08-25 18:00:00,
2013-08-25 12:01:00,90.3,58.2,29.74,ESE,113,2.0,12.0,34,0.00,,SKC,0.00,VWS V14.01,2013-08-25 18:01:00,
2013-08-25 12:06:00,90.2,58.9,29.74,East,101,4.0,7.0,35,0.00,,SKC,0.00,VWS V14.01,2013-08-25 18:06:00,
2013-08-25 12:11:00,90.4,58.2,29.74,SSE,152,4.0,12.0,34,0.00,,SKC,0.00,VWS V14.01,2013-08-25 18:11:00,
2013-08-25 12:16:00,91.1,58.0,29.74,SE,133,3.0,12.0,33,0.00,,SKC,0.00,VWS V14.01,2013-08-25 18:16:00,
2013-08-25 12:21:00,91.5,58.4,29.73,East,80,3.0,12.0,33,0.00,,SKC,0.00,VWS V14.01,2013-08-25 18:21:00,
2013-08-25 12:26:00,92.0,58.8,29.73,East,92,2.0,12.0,33,0.00,,SKC,0.00,VWS V14.01,2013-08-25 18:26:00,
2013-08-25 12:30:00,92.3,58.2,29.73,North,360,6.0,12.0,32,0.00,,,0.00,VWS V15.00,2013-08-25 18:30:00,
2013-08-25 12:31:00,92.3,59.1,29.73,East,87,2.0,12.0,33,0.00,,SKC,0.00,VWS V14.01,2013-08-25 18:31:00,
2013-08-25 12:36:00,92.2,58.1,29.73,North,360,9.0,13.0,32,0.00,,SKC,0.00,VWS V14.01,2013-08-25 18:36:00,
2013-08-25 12:41:00,91.8,57.8,29.73,SE,136,3.0,13.0,32,0.00,,SKC,0.00,VWS V14.01,2013-08-25 18:41:00,
2013-08-25 12:46:00,91.4,58.3,29.72,ESE,118,0.0,13.0,33,0.00,,SKC,0.00,VWS V14.01,2013-08-25 18:46:00,
2013-08-25 12:51:00,91.4,57.4,29.73,SE,136,7.0,14.0,32,0.00,,SKC,0.00,VWS V14.01,2013-08-25 18:51:00,
2013-08-25 12:56:00,91.1,58.8,29.72,SE,143,0.0,14.0,34,0.00,,SKC,0.00,VWS V14.01,2013-08-25 18:56:00,
2013-08-25 13:00:00,90.9,58.7,29.72,SSE,153,5.0,14.0,34,0.00,,,0.00,VWS V15.00,2013-08-25 19:00:00,
2013-08-25 13:01:00,90.8,58.6,29.72,North,360,8.0,14.0,34,0.00,,SKC,0.00,VWS V14.01,2013-08-25 19:01:00,
2013-08-25 13:06:00,91.1,58.0,29.73,SE,128,6.0,9.0,33,0.00,,SKC,0.00,VWS V14.01,2013-08-25 19:06:00,
2013-08-25 13:11:00,92.0,58.8,29.72,South,169,5.0,14.0,33,0.00,,SKC,0.00,VWS V14.01,2013-08-25 19:11:00,
2013-08-25 13:16:00,92.4,58.3,29.72,SSE,166,10.0,15.0,32,0.00,,SKC,0.00,VWS V14.01,2013-08-25 19:16:00,
2013-08-25 13:21:00,93.0,58.8,29.71,SE,137,2.0,15.0,32,0.00,,SKC,0.00,VWS V14.01,2013-08-25 19:21:00,
2013-08-25 13:26:00,93.1,58.9,29.71,North,360,9.0,15.0,32,0.00,,SKC,0.00,VWS V14.01,2013-08-25 19:26:00,
2013-08-25 13:30:00,91.9,57.9,29.71,SSE,151,5.0,15.0,32,0.00,,,0.00,VWS V15.00,2013-08-25 19:30:00,
2013-08-25 13:31:00,92.3,58.2,29.71,North,360,6.0,15.0,32,0.00,,SKC,0.00,VWS V14.01,2013-08-25 19:31:00,
2013-08-25 13:36:00,91.5,57.5,29.71,ESE,119,4.0,7.0,32,0.00,,SKC,0.00,VWS V14.01,2013-08-25 19:36:00,
2013-08-25 13:41:00,91.0,57.9,29.72,SE,131,10.0,13.0,33,0.00,,SKC,0.00,VWS V14.01,2013-08-25 19:41:00,
2013-08-25 13:46:00,90.5,59.1,29.72,East,91,0.0,13.0,35,0.00,,SKC,0.00,VWS V14.01,2013-08-25 19:46:00,
2013-08-25 13:51:00,90.2,58.9,29.72,East,91,0.0,13.0,35,0.00,,SKC,0.00,VWS V14.01,2013-08-25 19:51:00,
2013-08-25 13:56:00,90.1,57.2,29.72,East,99,3.0,13.0,33,0.00,,SKC,0.00,VWS V14.01,2013-08-25 19:56:00,
2013-08-25 14:00:00,89.7,58.4,29.72,NE,50,3.0,13.0,35,0.00,,,0.00,VWS V15.00,2013-08-25 20:00:00,
2013-08-25 14:01:00,89.9,57.8,29.71,ENE,68,2.0,13.0,34,0.00,,SKC,0.00,VWS V14.01,2013-08-25 20:01:00,
2013-08-25 14:06:00,89.2,61.8,29.72,NNW,340,7.0,10.0,40,0.00,,SKC,0.00,VWS V14.01,2013-08-25 20:06:00,
2013-08-25 14:11:00,87.3,60.0,29.73,NW,313,5.0,10.0,40,0.00,,SKC,0.00,VWS V14.01,2013-08-25 20:11:00,
2013-08-25 14:16:00,84.0,61.0,29.74,NNW,348,2.0,16.0,46,0.00,,SKC,0.00,VWS V14.01,2013-08-25 20:16:00,
2013-08-25 14:21:00,83.0,59.5,29.76,SW,233,8.0,16.0,45,0.00,,SKC,0.00,VWS V14.01,2013-08-25 20:21:00,
2013-08-25 14:26:00,82.7,58.6,29.76,West,279,10.0,19.0,44,0.00,,SKC,0.00,VWS V14.01,2013-08-25 20:26:00,
2013-08-25 14:30:00,83.6,59.4,29.75,NNW,340,19.0,19.0,44,0.00,,,0.00,VWS V15.00,2013-08-25 20:30:00,
2013-08-25 14:31:00,83.5,59.3,29.76,NW,323,10.0,19.0,44,0.00,,SKC,0.00,VWS V14.01,2013-08-25 20:31:00,
2013-08-25 14:36:00,82.1,60.5,29.76,NNW,333,12.0,20.0,48,0.00,,SKC,0.00,VWS V14.01,2013-08-25 20:36:00,
2013-08-25 14:41:00,79.5,59.8,29.75,North,360,17.0,20.0,51,0.00,,SKC,0.00,VWS V14.01,2013-08-25 20:41:00,
2013-08-25 14:46:00,78.6,59.5,29.76,North,355,11.0,20.0,52,0.00,,SKC,0.00,VWS V14.01,2013-08-25 20:46:00,
2013-08-25 14:51:00,78.6,59.0,29.76,NNE,15,3.0,20.0,51,0.00,,SKC,0.00,VWS V14.01,2013-08-25 20:51:00,
2013-08-25 14:56:00,79.1,59.4,29.76,North,360,6.0,20.0,51,0.00,,SKC,0.00,VWS V14.01,2013-08-25 20:56:00,
2013-08-25 15:00:00,80.0,60.8,29.75,West,278,4.0,20.0,52,0.00,,,0.00,VWS V15.00,2013-08-25 21:00:00,
2013-08-25 15:01:00,79.7,60.5,29.75,NNW,338,0.0,20.0,52,0.00,,SKC,0.00,VWS V14.01,2013-08-25 21:01:00,
2013-08-25 15:06:00,80.3,60.5,29.75,WSW,244,6.0,6.0,51,0.00,,SKC,0.00,VWS V14.01,2013-08-25 21:06:00,
2013-08-25 15:11:00,81.1,61.3,29.74,WSW,254,6.0,10.0,51,0.00,,SKC,0.00,VWS V14.01,2013-08-25 21:11:00,
2013-08-25 15:16:00,82.2,60.0,29.74,WSW,257,0.0,10.0,47,0.00,,SKC,0.00,VWS V14.01,2013-08-25 21:16:00,
2013-08-25 15:21:00,83.2,60.3,29.74,West,270,0.0,10.0,46,0.00,,SKC,0.00,VWS V14.01,2013-08-25 21:21:00,
2013-08-25 15:26:00,83.9,60.3,29.73,West,270,0.0,10.0,45,0.00,,SKC,0.00,VWS V14.01,2013-08-25 21:26:00,
2013-08-25 15:30:00,85.0,60.0,29.73,West,270,0.0,10.0,43,0.00,,,0.00,VWS V15.00,2013-08-25 21:30:00,
2013-08-25 15:31:00,84.6,59.7,29.73,West,269,0.0,10.0,43,0.00,,SKC,0.00,VWS V14.01,2013-08-25 21:31:00,
2013-08-25 15:36:00,85.2,60.2,29.73,West,269,0.0,0.0,43,0.00,,SKC,0.00,VWS V14.01,2013-08-25 21:36:00,
2013-08-25 15:41:00,86.0,58.2,29.73,NNE,29,2.0,4.0,39,0.00,,SKC,0.00,VWS V14.01,2013-08-25 21:41:00,
2013-08-25 15:46:00,86.6,62.8,29.72,West,267,6.0,10.0,45,0.00,,SKC,0.00,VWS V14.01,2013-08-25 21:46:00,
2013-08-25 15:51:00,85.5,63.6,29.73,West,261,11.0,13.0,48,0.00,,SKC,0.00,VWS V14.01,2013-08-25 21:51:00,
2013-08-25 15:56:00,84.7,63.5,29.73,WSW,249,6.0,13.0,49,0.00,,SKC,0.00,VWS V14.01,2013-08-25 21:56:00,
2013-08-25 16:00:00,84.3,63.7,29.73,NW,324,11.0,13.0,50,0.00,,,0.00,VWS V15.00,2013-08-25 22:00:00,
2013-08-25 16:01:00,84.2,63.6,29.73,NW,307,9.0,13.0,50,0.00,,SKC,0.00,VWS V14.01,2013-08-25 22:01:00,
2013-08-25 16:06:00,84.5,63.3,29.74,NW,321,7.0,11.0,49,0.00,,SKC,0.00,VWS V14.01,2013-08-25 22:06:00,
2013-08-25 16:11:00,85.0,63.1,29.74,North,9,8.0,14.0,48,0.00,,SKC,0.00,VWS V14.01,2013-08-25 22:11:00,
2013-08-25 16:16:00,84.8,62.3,29.74,North,355,8.0,14.0,47,0.00,,SKC,0.00,VWS V14.01,2013-08-25 22:16:00,
2013-08-25 16:21:00,84.4,62.6,29.73,NW,316,9.0,14.0,48,0.00,,SKC,0.00,VWS V14.01,2013-08-25 22:21:00,
2013-08-25 16:26:00,84.1,61.7,29.74,West,276,10.0,14.0,47,0.00,,SKC,0.00,VWS V14.01,2013-08-25 22:26:00,
2013-08-25 16:30:00,83.6,61.8,29.74,NNW,346,6.0,14.0,48,0.00,,,0.00,VWS V15.00,2013-08-25 22:30:00,
2013-08-25 16:31:00,83.8,61.4,29.74,NW,319,6.0,14.0,47,0.00,,SKC,0.00,VWS V14.01,2013-08-25 22:31:00,
2013-08-25 16:36:00,83.5,61.8,29.74,NNW,331,7.0,10.0,48,0.00,,SKC,0.00,VWS V14.01,2013-08-25 22:36:00,
2013-08-25 16:41:00,83.6,63.0,29.74,NNW,332,8.0,10.0,50,0.00,,SKC,0.00,VWS V14.01,2013-08-25 22:41:00,
2013-08-25 16:46:00,84.1,62.9,29.74,NW,321,7.0,11.0,49,0.00,,SKC,0.00,VWS V14.01,2013-08-25 22:46:00,
2013-08-25 16:51:00,84.3,62.5,29.74,NW,318,4.0,11.0,48,0.00,,SKC,0.00,VWS V14.01,2013-08-25 22:51:00,
2013-08-25 16:56:00,84.1,62.9,29.74,NNW,333,5.0,11.0,49,0.00,,SKC,0.00,VWS V14.01,2013-08-25 22:56:00,
2013-08-25 17:00:00,84.0,62.8,29.74,NW,314,4.0,11.0,49,0.00,,,0.00,VWS V15.00,2013-08-25 23:00:00,
2013-08-25 17:01:00,83.9,62.7,29.74,NNW,332,4.0,11.0,49,0.00,,SKC,0.00,VWS V14.01,2013-08-25 23:01:00,
2013-08-25 17:06:00,84.2,63.0,29.75,North,5,7.0,7.0,49,0.00,,SKC,0.00,VWS V14.01,2013-08-25 23:06:00,
2013-08-25 17:11:00,84.6,62.8,29.74,NW,315,10.0,10.0,48,0.00,,SKC,0.00,VWS V14.01,2013-08-25 23:11:00,
2013-08-25 17:16:00,85.1,63.2,29.74,NNW,348,6.0,10.0,48,0.00,,SKC,0.00,VWS V14.01,2013-08-25 23:16:00,
2013-08-25 17:21:00,85.4,63.5,29.75,NNW,340,9.0,11.0,48,0.00,,SKC,0.00,VWS V14.01,2013-08-25 23:21:00,
2013-08-25 17:26:00,85.3,64.0,29.75,NNW,336,1.0,11.0,49,0.00,,SKC,0.00,VWS V14.01,2013-08-25 23:26:00,
2013-08-25 17:30:00,84.9,64.2,29.74,NNW,346,6.0,11.0,50,0.00,,,0.00,VWS V15.00,2013-08-25 23:30:00,
2013-08-25 17:31:00,85.0,63.7,29.74,NW,321,6.0,11.0,49,0.00,,SKC,0.00,VWS V14.01,2013-08-25 23:31:00,
2013-08-25 17:36:00,84.7,64.0,29.74,WNW,303,7.0,10.0,50,0.00,,SKC,0.00,VWS V14.01,2013-08-25 23:36:00,
2013-08-25 17:41:00,84.3,63.7,29.75,NNW,342,6.0,10.0,50,0.00,,SKC,0.00,VWS V14.01,2013-08-25 23:41:00,
2013-08-25 17:46:00,84.3,63.7,29.75,NNW,331,5.0,10.0,50,0.00,,SKC,0.00,VWS V14.01,2013-08-25 23:46:00,
2013-08-25 17:51:00,84.2,63.0,29.75,NNW,346,2.0,10.0,49,0.00,,SKC,0.00,VWS V14.01,2013-08-25 23:51:00,
2013-08-25 17:56:00,83.9,62.7,29.75,NNW,346,3.0,10.0,49,0.00,,SKC,0.00,VWS V14.01,2013-08-25 23:56:00,
2013-08-25 18:00:00,84.1,62.9,29.75,NNW,334,0.0,10.0,49,0.00,,,0.00,VWS V15.00,2013-08-26 00:00:00,
2013-08-25 18:01:00,84.0,63.4,29.75,NNW,335,3.0,10.0,50,0.00,,SKC,0.00,VWS V14.01,2013-08-26 00:01:00,
2013-08-25 18:06:00,84.2,63.0,29.74,NNW,334,0.0,0.0,49,0.00,,SKC,0.00,VWS V14.01,2013-08-26 00:06:00,
2013-08-25 18:11:00,84.4,62.6,29.74,NNW,334,3.0,4.0,48,0.00,,SKC,0.00,VWS V14.01,2013-08-26 00:11:00,
2013-08-25 18:16:00,84.7,62.9,29.74,NNW,333,0.0,4.0,48,0.00,,SKC,0.00,VWS V14.01,2013-08-26 00:16:00,
2013-08-25 18:21:00,84.9,62.4,29.73,NW,309,2.0,4.0,47,0.00,,SKC,0.00,VWS V14.01,2013-08-26 00:21:00,
2013-08-25 18:26:00,84.9,62.4,29.74,WNW,290,4.0,4.0,47,0.00,,SKC,0.00,VWS V14.01,2013-08-26 00:26:00,
2013-08-25 18:30:00,84.3,62.5,29.74,WNW,290,2.0,4.0,48,0.00,,,0.00,VWS V15.00,2013-08-26 00:30:00,
2013-08-25 18:31:00,84.5,62.1,29.74,WNW,290,2.0,4.0,47,0.00,,SKC,0.00,VWS V14.01,2013-08-26 00:31:00,
2013-08-25 18:36:00,84.2,62.4,29.74,WNW,290,0.0,2.0,48,0.00,,SKC,0.00,VWS V14.01,2013-08-26 00:36:00,
2013-08-25 18:41:00,83.7,62.5,29.74,WNW,290,0.0,2.0,49,0.00,,SKC,0.00,VWS V14.01,2013-08-26 00:41:00,
2013-08-25 18:46:00,83.4,62.3,29.74,WNW,290,0.0,2.0,49,0.00,,SKC,0.00,VWS V14.01,2013-08-26 00:46:00,
2013-08-25 18:51:00,83.0,62.5,29.74,WNW,290,0.0,2.0,50,0.00,,SKC,0.00,VWS V14.01,2013-08-26 00:51:00,
2013-08-25 18:56:00,82.7,62.2,29.74,WNW,290,0.0,2.0,50,0.00,,SKC,0.00,VWS V14.01,2013-08-26 00:56:00,
2013-08-25 19:00:00,81.9,63.1,29.75,WNW,290,0.0,2.0,53,0.00,,,0.00,VWS V15.00,2013-08-26 01:00:00,
2013-08-25 19:01:00,82.2,62.8,29.74,WNW,290,0.0,2.0,52,0.00,,SKC,0.00,VWS V14.01,2013-08-26 01:01:00,
2013-08-25 19:06:00,81.6,62.8,29.73,WNW,290,0.0,0.0,53,0.00,,SKC,0.00,VWS V14.01,2013-08-26 01:06:00,
2013-08-25 19:11:00,81.0,62.8,29.73,WNW,289,2.0,3.0,54,0.00,,SKC,0.00,VWS V14.01,2013-08-26 01:11:00,
2013-08-25 19:16:00,80.5,62.3,29.73,WNW,288,2.0,3.0,54,0.00,,SKC,0.00,VWS V14.01,2013-08-26 01:16:00,
2013-08-25 19:21:00,80.0,62.4,29.73,WNW,288,0.0,3.0,55,0.00,,SKC,0.00,VWS V14.01,2013-08-26 01:21:00,
2013-08-25 19:26:00,79.2,62.7,29.74,WNW,289,0.0,3.0,57,0.00,,SKC,0.00,VWS V14.01,2013-08-26 01:26:00,
2013-08-25 19:30:00,78.3,63.3,29.74,West,262,4.0,5.0,60,0.00,,,0.00,VWS V15.00,2013-08-26 01:30:00,
2013-08-25 19:31:00,78.7,63.2,29.74,WNW,288,0.0,3.0,59,0.00,,SKC,0.00,VWS V14.01,2013-08-26 01:31:00,
2013-08-25 19:36:00,78.1,63.6,29.74,West,260,4.0,5.0,61,0.00,,SKC,0.00,VWS V14.01,2013-08-26 01:36:00,
2013-08-25 19:41:00,77.6,63.6,29.74,WSW,255,4.0,5.0,62,0.00,,SKC,0.00,VWS V14.01,2013-08-26 01:41:00,
2013-08-25 19:46:00,77.2,63.2,29.74,WSW,258,5.0,6.0,62,0.00,,SKC,0.00,VWS V14.01,2013-08-26 01:46:00,
2013-08-25 19:51:00,76.7,62.7,29.75,WSW,244,4.0,6.0,62,0.00,,SKC,0.00,VWS V14.01,2013-08-26 01:51:00,
2013-08-25 19:56:00,76.5,63.0,29.75,WSW,240,4.0,6.0,63,0.00,,SKC,0.00,VWS V14.01,2013-08-26 01:56:00,
2013-08-25 20:00:00,76.1,63.0,29.75,WSW,237,4.0,6.0,64,0.00,,,0.00,VWS V15.00,2013-08-26 02:00:00,
2013-08-25 20:01:00,76.3,63.2,29.75,WSW,243,5.0,6.0,64,0.00,,SKC,0.00,VWS V14.01,2013-08-26 02:01:00,
2013-08-25 20:06:00,76.1,63.0,29.74,WSW,244,6.0,6.0,64,0.00,,SKC,0.00,VWS V14.01,2013-08-26 02:06:00,
2013-08-25 20:11:00,76.0,63.0,29.74,WSW,245,4.0,6.0,64,0.00,,SKC,0.00,VWS V14.01,2013-08-26 02:11:00,
2013-08-25 20:16:00,75.8,63.2,29.74,WSW,242,4.0,7.0,65,0.00,,SKC,0.00,VWS V14.01,2013-08-26 02:16:00,
2013-08-25 20:21:00,75.5,62.0,29.75,WSW,238,5.0,7.0,63,0.00,,SKC,0.00,VWS V14.01,2013-08-26 02:21:00,
2013-08-25 20:26:00,75.3,62.7,29.75,WSW,242,5.0,7.0,65,0.00,,SKC,0.00,VWS V14.01,2013-08-26 02:26:00,
2013-08-25 20:30:00,75.3,61.8,29.75,WSW,242,5.0,7.0,63,0.00,,,0.00,VWS V15.00,2013-08-26 02:30:00,
2013-08-25 20:31:00,75.2,62.2,29.75,SW,232,4.0,7.0,64,0.00,,SKC,0.00,VWS V14.01,2013-08-26 02:31:00,
2013-08-25 20:36:00,75.2,62.2,29.75,WSW,248,6.0,6.0,64,0.00,,SKC,0.00,VWS V14.01,2013-08-26 02:36:00,
2013-08-25 20:41:00,75.2,62.2,29.75,WSW,244,5.0,7.0,64,0.00,,SKC,0.00,VWS V14.01,2013-08-26 02:41:00,
2013-08-25 20:46:00,75.1,62.1,29.75,WSW,246,5.0,7.0,64,0.00,,SKC,0.00,VWS V14.01,2013-08-26 02:46:00,
2013-08-25 20:51:00,74.8,61.8,29.75,WSW,243,5.0,7.0,64,0.00,,SKC,0.00,VWS V14.01,2013-08-26 02:51:00,
2013-08-25 20:56:00,74.6,61.6,29.75,WSW,242,5.0,7.0,64,0.00,,SKC,0.00,VWS V14.01,2013-08-26 02:56:00,
2013-08-25 21:00:00,74.4,61.4,29.75,WSW,254,4.0,7.0,64,0.00,,,0.00,VWS V15.00,2013-08-26 03:00:00,
2013-08-25 21:01:00,74.5,61.5,29.75,WSW,244,6.0,7.0,64,0.00,,SKC,0.00,VWS V14.01,2013-08-26 03:01:00,
2013-08-25 21:06:00,74.4,61.4,29.73,WSW,248,7.0,7.0,64,0.00,,SKC,0.00,VWS V14.01,2013-08-26 03:06:00,
2013-08-25 21:11:00,74.4,62.3,29.73,WSW,245,6.0,9.0,66,0.00,,SKC,0.00,VWS V14.01,2013-08-26 03:11:00,
2013-08-25 21:16:00,74.2,62.1,29.73,WSW,244,6.0,9.0,66,0.00,,SKC,0.00,VWS V14.01,2013-08-26 03:16:00,
2013-08-25 21:21:00,73.7,61.7,29.73,WSW,244,4.0,9.0,66,0.00,,SKC,0.00,VWS V14.01,2013-08-26 03:21:00,
2013-08-25 21:26:00,73.4,61.8,29.73,WSW,244,5.0,9.0,67,0.00,,SKC,0.00,VWS V14.01,2013-08-26 03:26:00,
2013-08-25 21:30:00,73.1,61.9,29.74,WSW,238,6.0,9.0,68,0.00,,,0.00,VWS V15.00,2013-08-26 03:30:00,
2013-08-25 21:31:00,73.1,61.5,29.74,WSW,238,6.0,9.0,67,0.00,,SKC,0.00,VWS V14.01,2013-08-26 03:31:00,
2013-08-25 21:36:00,73.1,61.9,29.74,WSW,237,8.0,9.0,68,0.00,,SKC,0.00,VWS V14.01,2013-08-26 03:36:00,
2013-08-25 21:41:00,73.2,62.0,29.74,WSW,237,5.0,9.0,68,0.00,,SKC,0.00,VWS V14.01,2013-08-26 03:41:00,
2013-08-25 21:46:00,73.2,62.0,29.74,WSW,248,7.0,10.0,68,0.00,,SKC,0.00,VWS V14.01,2013-08-26 03:46:00,
2013-08-25 21:51:00,73.0,61.8,29.74,WSW,246,5.0,10.0,68,0.00,,SKC,0.00,VWS V14.01,2013-08-26 03:51:00,
2013-08-25 21:56:00,72.8,61.6,29.73,WSW,248,5.0,10.0,68,0.00,,SKC,0.00,VWS V14.01,2013-08-26 03:56:00,
2013-08-25 22:00:00,72.6,61.9,29.74,WSW,245,9.0,10.0,69,0.00,,,0.00,VWS V15.00,2013-08-26 04:00:00,
2013-08-25 22:01:00,72.6,61.9,29.74,WSW,245,7.0,10.0,69,0.00,,SKC,0.00,VWS V14.01,2013-08-26 04:01:00,
2013-08-25 22:06:00,72.7,62.0,29.74,WSW,248,5.0,9.0,69,0.00,,SKC,0.00,VWS V14.01,2013-08-26 04:06:00,
2013-08-25 22:11:00,72.8,62.0,29.73,WSW,245,5.0,9.0,69,0.00,,SKC,0.00,VWS V14.01,2013-08-26 04:11:00,
2013-08-25 22:16:00,72.8,62.0,29.73,WSW,247,4.0,9.0,69,0.00,,SKC,0.00,VWS V14.01,2013-08-26 04:16:00,
2013-08-25 22:21:00,72.9,61.7,29.73,WSW,250,4.0,9.0,68,0.00,,SKC,0.00,VWS V14.01,2013-08-26 04:21:00,
2013-08-25 22:26:00,72.9,61.7,29.73,WSW,244,5.0,9.0,68,0.00,,SKC,0.00,VWS V14.01,2013-08-26 04:26:00,
2013-08-25 22:30:00,73.0,61.8,29.74,WSW,246,6.0,9.0,68,0.00,,,0.00,VWS V15.00,2013-08-26 04:30:00,
2013-08-25 22:31:00,73.0,61.8,29.74,WSW,253,5.0,9.0,68,0.00,,SKC,0.00,VWS V14.01,2013-08-26 04:31:00,
2013-08-25 22:36:00,72.9,62.1,29.73,WSW,249,5.0,9.0,69,0.00,,SKC,0.00,VWS V14.01,2013-08-26 04:36:00,
2013-08-25 22:41:00,72.8,62.0,29.73,WSW,241,5.0,9.0,69,0.00,,SKC,0.00,VWS V14.01,2013-08-26 04:41:00,
2013-08-25 22:46:00,72.9,62.1,29.73,WSW,258,6.0,10.0,69,0.00,,SKC,0.00,VWS V14.01,2013-08-26 04:46:00,
2013-08-25 22:51:00,72.9,62.5,29.73,WSW,247,7.0,10.0,70,0.00,,SKC,0.00,VWS V14.01,2013-08-26 04:51:00,
2013-08-25 22:56:00,72.8,62.0,29.73,WSW,243,3.0,10.0,69,0.00,,SKC,0.00,VWS V14.01,2013-08-26 04:56:00,
2013-08-25 23:00:00,72.8,62.0,29.73,WSW,245,4.0,10.0,69,0.00,,,0.00,VWS V15.00,2013-08-26 05:00:00,
2013-08-25 23:01:00,72.8,62.0,29.73,North,360,8.0,10.0,69,0.00,,SKC,0.00,VWS V14.01,2013-08-26 05:01:00,
2013-08-25 23:06:00,72.7,62.0,29.72,WSW,238,6.0,7.0,69,0.00,,SKC,0.00,VWS V14.01,2013-08-26 05:06:00,
2013-08-25 23:11:00,72.6,61.4,29.72,WSW,245,6.0,7.0,68,0.00,,SKC,0.00,VWS V14.01,2013-08-26 05:11:00,
2013-08-25 23:16:00,72.6,61.9,29.71,WSW,245,7.0,8.0,69,0.00,,SKC,0.00,VWS V14.01,2013-08-26 05:16:00,
2013-08-25 23:21:00,72.6,61.9,29.71,WSW,244,8.0,9.0,69,0.00,,SKC,0.00,VWS V14.01,2013-08-26 05:21:00,
2013-08-25 23:26:00,72.7,62.0,29.71,WSW,249,3.0,9.0,69,0.00,,SKC,0.00,VWS V14.01,2013-08-26 05:26:00,
2013-08-25 23:30:00,72.7,62.0,29.71,WSW,250,3.0,9.0,69,0.00,,,0.00,VWS V15.00,2013-08-26 05:30:00,
2013-08-25 23:31:00,72.7,62.0,29.72,WSW,243,3.0,9.0,69,0.00,,SKC,0.00,VWS V14.01,2013-08-26 05:31:00,
2013-08-25 23:36:00,72.7,62.0,29.71,WSW,252,3.0,5.0,69,0.00,,SKC,0.00,VWS V14.01,2013-08-26 05:36:00,
2013-08-25 23:41:00,72.8,62.0,29.71,West,260,4.0,5.0,69,0.00,,SKC,0.00,VWS V14.01,2013-08-26 05:41:00,
2013-08-25 23:46:00,72.7,62.0,29.71,WSW,243,5.0,6.0,69,0.00,,SKC,0.00,VWS V14.01,2013-08-26 05:46:00,
2013-08-25 23:51:00,72.7,62.0,29.71,WSW,250,5.0,7.0,69,0.00,,SKC,0.00,VWS V14.01,2013-08-26 05:51:00,
2013-08-25 23:56:00,72.9,62.1,29.71,WSW,244,4.0,7.0,69,0.00,,SKC,0.00,VWS V14.01,2013-08-26 05:56:00,